GAP2045 RPLL-RPVE

Flight info

Callsign GAP2045
Flight time N/A
Altitude 25000
Route VERDE W24 TAPER TAPER7A
Aircraft A320/M-SDE3FGHIRWY/LB1

Departure

Time 2026-05-04 06:11
Airport Ninoy Aquino International Airport (RPLL)

Arrival

Time N/A
Airport Godofredo P. Ramos Airport (RPVE)
Time Latitude Longitude Altitude Speed Heading
2026-05-04 05:45 14.50699 121.01134 82 ft 0 kts 329°
2026-05-04 05:57 14.50692 121.01138 81 ft 2 kts 329°
2026-05-04 05:57 14.50679 121.01146 81 ft 2 kts 329°
2026-05-04 05:57 14.50671 121.01150 81 ft 1 kts 331°
2026-05-04 05:58 14.50664 121.01159 81 ft 1 kts 269°
2026-05-04 05:58 14.50666 121.01166 81 ft 0 kts 235°
2026-05-04 05:58 14.50670 121.01172 81 ft 0 kts 240°
2026-05-04 06:03 14.50668 121.01169 81 ft 1 kts 239°
2026-05-04 06:05 14.50439 121.00904 81 ft 11 kts 240°
2026-05-04 06:05 14.50354 121.00751 81 ft 12 kts 240°
2026-05-04 06:05 14.50309 121.00671 81 ft 12 kts 239°
2026-05-04 06:06 14.50264 121.00590 81 ft 10 kts 240°
2026-05-04 06:06 14.50225 121.00520 81 ft 11 kts 240°
2026-05-04 06:06 14.50186 121.00449 81 ft 11 kts 240°
2026-05-04 06:06 14.50172 121.00423 81 ft 0 kts 240°
2026-05-04 06:07 14.50170 121.00420 81 ft 1 kts 240°
2026-05-04 06:08 14.50158 121.00397 81 ft 5 kts 240°
2026-05-04 06:08 14.50134 121.00362 81 ft 6 kts 214°
2026-05-04 06:08 14.50089 121.00372 81 ft 7 kts 150°
2026-05-04 06:08 14.50041 121.00401 81 ft 7 kts 150°
2026-05-04 06:09 14.50024 121.00442 81 ft 7 kts 79°
2026-05-04 06:09 14.50034 121.00465 81 ft 0 kts 60°
2026-05-04 06:11 14.52361 121.04681 1464 ft 173 kts 64°
2026-05-04 06:11 14.52964 121.05759 1890 ft 177 kts 65°
2026-05-04 06:13 14.54396 121.15635 4287 ft 274 kts 155°
2026-05-04 06:14 14.42598 121.14333 7513 ft 292 kts 185°
2026-05-04 06:14 14.40569 121.14095 8115 ft 294 kts 185°
2026-05-04 06:15 14.38521 121.13854 8856 ft 296 kts 185°
2026-05-04 06:15 14.36485 121.13612 9678 ft 297 kts 186°
2026-05-04 06:15 14.35112 121.13447 10272 ft 298 kts 186°
2026-05-04 06:15 14.32313 121.13108 11121 ft 313 kts 186°
2026-05-04 06:16 14.30068 121.12834 11424 ft 329 kts 186°
2026-05-04 06:16 14.27747 121.12550 11727 ft 345 kts 186°
2026-05-04 06:16 14.25313 121.12251 11642 ft 352 kts 186°
2026-05-04 06:16 14.22868 121.11945 11918 ft 360 kts 185°
2026-05-04 06:17 14.20365 121.11640 12403 ft 365 kts 185°
2026-05-04 06:17 14.17816 121.11334 12915 ft 367 kts 185°
2026-05-04 06:17 14.15271 121.11027 13440 ft 370 kts 185°
2026-05-04 06:17 14.12696 121.10716 13952 ft 372 kts 185°
2026-05-04 06:18 14.10091 121.10400 14426 ft 374 kts 185°
2026-05-04 06:18 14.07507 121.10085 14880 ft 376 kts 185°
2026-05-04 06:18 14.04889 121.09767 15358 ft 378 kts 185°
2026-05-04 06:20 13.86166 121.07505 18328 ft 392 kts 185°
2026-05-04 06:20 13.83439 121.07175 18689 ft 395 kts 185°
2026-05-04 06:21 13.72370 121.05837 20051 ft 402 kts 185°
2026-05-04 06:21 13.69584 121.05502 20378 ft 404 kts 185°
2026-05-04 06:22 13.66792 121.05167 20700 ft 406 kts 185°
2026-05-04 06:22 13.63980 121.04827 21015 ft 407 kts 185°
2026-05-04 06:25 13.30388 121.17196 24942 ft 421 kts 145°
2026-05-04 06:25 13.27963 121.18893 24946 ft 421 kts 145°
2026-05-04 06:26 13.25548 121.20583 24941 ft 421 kts 145°
2026-05-04 06:26 13.23122 121.22282 24931 ft 421 kts 145°
2026-05-04 06:26 13.20697 121.23981 24913 ft 421 kts 145°
2026-05-04 06:26 13.18283 121.25672 24903 ft 421 kts 145°
2026-05-04 06:27 13.08614 121.32448 24913 ft 421 kts 145°
2026-05-04 06:28 13.06170 121.34159 24916 ft 421 kts 145°
2026-05-04 06:28 13.03766 121.35841 24917 ft 421 kts 145°
2026-05-04 06:28 13.01353 121.37531 24920 ft 421 kts 145°
2026-05-04 06:28 12.98899 121.39248 24917 ft 421 kts 145°
2026-05-04 06:29 12.96510 121.40918 24914 ft 421 kts 145°
2026-05-04 06:29 12.94087 121.42611 24837 ft 421 kts 145°
2026-05-04 06:29 12.91651 121.44314 24188 ft 425 kts 144°
2026-05-04 06:29 12.89204 121.46025 23191 ft 431 kts 145°
2026-05-04 06:30 12.86689 121.47783 22388 ft 431 kts 144°
2026-05-04 06:30 12.84222 121.49506 21820 ft 425 kts 144°
2026-05-04 06:30 12.81799 121.51196 21288 ft 419 kts 144°
2026-05-04 06:30 12.79404 121.52868 20758 ft 414 kts 144°
2026-05-04 06:31 12.77036 121.54521 20235 ft 409 kts 144°
2026-05-04 06:31 12.74723 121.56138 19741 ft 404 kts 144°
2026-05-04 06:31 12.72397 121.57761 19222 ft 400 kts 144°
2026-05-04 06:31 12.70103 121.59363 18709 ft 396 kts 144°
2026-05-04 06:32 12.67863 121.60926 18221 ft 391 kts 144°
2026-05-04 06:33 12.52562 121.71596 14730 ft 371 kts 143°
2026-05-04 06:34 12.50436 121.73079 14229 ft 369 kts 143°
2026-05-04 06:34 12.49009 121.74075 13884 ft 368 kts 143°
2026-05-04 06:34 12.46211 121.76026 13222 ft 363 kts 143°
2026-05-04 06:34 12.44120 121.77483 12731 ft 361 kts 143°
2026-05-04 06:35 12.42045 121.78930 12232 ft 359 kts 143°
2026-05-04 06:36 12.26345 121.80552 10068 ft 310 kts 191°
2026-05-04 06:37 12.24269 121.80094 9918 ft 301 kts 191°
2026-05-04 06:37 12.22899 121.79796 9676 ft 300 kts 191°
2026-05-04 06:37 12.20201 121.79207 9203 ft 298 kts 191°
2026-05-04 06:37 12.18142 121.78761 8856 ft 297 kts 191°
2026-05-04 06:38 12.16125 121.78328 8590 ft 296 kts 191°
2026-05-04 06:38 12.14123 121.77892 8298 ft 295 kts 191°
2026-05-04 06:40 12.00483 121.74944 5808 ft 276 kts 191°
2026-05-04 06:40 11.98607 121.74533 5433 ft 271 kts 191°
2026-05-04 06:40 11.96774 121.74133 5089 ft 268 kts 190°
2026-05-04 06:40 11.94945 121.73735 4767 ft 266 kts 189°
2026-05-04 06:41 11.93140 121.73346 4496 ft 264 kts 189°
2026-05-04 06:41 11.91322 121.73133 4179 ft 260 kts 172°
2026-05-04 06:41 11.89599 121.73618 3996 ft 248 kts 152°
2026-05-04 06:41 11.88104 121.74390 3976 ft 233 kts 149°
2026-05-04 06:42 11.86750 121.75120 3956 ft 231 kts 149°
2026-05-04 06:42 11.85670 121.75700 3929 ft 231 kts 150°
2026-05-04 06:42 11.84300 121.76533 3838 ft 227 kts 134°
2026-05-04 06:44 11.87454 121.85477 2140 ft 194 kts 63°
2026-05-04 06:44 11.88067 121.86681 1857 ft 192 kts 63°
2026-05-04 06:44 11.88666 121.87869 1583 ft 182 kts 63°
2026-05-04 06:45 11.89221 121.88972 1358 ft 166 kts 63°
2026-05-04 06:45 11.89728 121.89980 1117 ft 153 kts 63°
2026-05-04 06:45 11.90190 121.90903 903 ft 140 kts 63°
2026-05-04 06:45 11.90620 121.91776 684 ft 136 kts 63°
2026-05-04 06:46 11.91060 121.92635 588 ft 136 kts 64°
2026-05-04 06:46 11.91492 121.93495 436 ft 136 kts 64°
2026-05-04 06:46 11.91926 121.94354 236 ft 136 kts 64°
2026-05-04 06:46 11.92353 121.95203 38 ft 134 kts 64°